Погода в Комсомольском

Россия / Чувашская Республика     55°15′43″N   47°32′11″E
темп.,
°C
ветер,
м/с
пор.,
м/с
влажн.,
%
обл.,
%
осадки,
мм/ч
давл.,
гПа
погр.,
м
13 апреля, вт
вт1300:00+5вюв389990 0.0 1036161
03:00+6юв3899100 0.0 1035181
06:00+6юв37100100 0.0 1035182
09:00+8ююв469589 0.0 1035193
12:00+15ююв575967 0.0 1033566
15:00+17ююв574219 0.0 1032952
18:00+13ююв36595 0.0 1031102
21:00+10ююв356910 0.0 103157
14 апреля, ср
ср1400:00+8ю357036 0.0 103152
03:00+7ю336362 0.0 103029
06:00+6ююв34675 0.0 103048
09:00+12ююв465551 0.0 1029285
12:00+16ююв57475 0.0 1027687
15:00+17ююв67535 0.0 1026891
18:00+15юв48692 0.0 1024219
21:00+11ююв37825 0.0 1024112
15 апреля, чт
чт1500:00+10ююв34870 0.0 102356
03:00+9ююв33880 0.0 102227
06:00+8ююв34890 0.0 102259
09:00+13ю346624 0.0 1021364
12:00+17ю3447100 0.0 10201342
15:00+18ююз2336100 0.0 10191787
18:00+16зсз11487 0.0 101811
21:00+12ссв225997 0.0 101913
16 апреля, пт
пт1600:00+11св2265100 0.0 101913
03:00+10св2276100 0.4 101912
06:00+8св4887100 0.4 1020163
09:00+11всв5680100 0.7 1021400
12:00+14всв556463 0.1 1021762
15:00+15св665989 0.1 10221101
18:00+12св5966100 0.0 1023482
21:00+9всв5117090 0.0 1024376
17 апреля, сб
сб1700:00+6всв5116290 0.0 1025310
03:00+4всв497089 0.0 1026218
06:00+4всв497037 0.0 1027263
09:00+8всв574820 0.0 1028708
12:00+11всв553866 0.0 10271262
15:00+12св453622 0.0 10261559
18:00+10св34461 0.0 1026128
21:00+6ссв37595 0.0 1027120